Погода в Шунерах

Россия / Красноярский край     53°07′36″N   91°35′25″E
темп.,
°C
ветер,
м/с
пор.,
м/с
влажн.,
%
обл.,
%
осадки,
мм/ч
давл.,
гПа
погр.,
м
17 мая, пн
пн1701:00+13юз3989100 5.2 1012294
04:00+14юз31087100 0.9 1011340
07:00+13зюз41091100 7.2 1011375
10:00+16з577983 0.9 1012503
13:00+14с3493100 5.1 1012291
16:00+16вюв217778 1.9 1012649
19:00+14ссв3587100 3.9 1012288
22:00+13зюз0090100 1.7 101415
18 мая, вт
вт1801:00+12юз2293100 2.5 101429
04:00+12зюз009179 0.2 101310
07:00+12ююв2389100 0.3 1012168
10:00+18зюз6106984 0.8 10091141
13:00+17юз51274100 2.4 1005904
16:00+19зюз111965100 0.4 10011079
19:00+19з122066100 1.6 10001283
22:00+11сз815735 0.2 1008685
19 мая, ср
ср1901:00+10вюв118198 0.2 100949
04:00+9в2489100 0.4 1007170
07:00+9всв3488100 0.7 1004268
10:00+10в1187100 0.5 1002286
13:00+9ссв3390100 1.3 1002430
16:00+8с3593100 2.7 1004424
19:00+7сз3692100 4.4 1006478
22:00+6ссз4593100 2.6 1007939
20 мая, чт
чт2001:00+5сз1591100 6.2 1007666
04:00+5юз3494100 1.0 1007254
07:00+5зсз4679100 1.1 1008452
10:00+6ссз5558100 0.0 10081498
13:00+7ссз555899 0.2 10091574
16:00+8с4546100 0.1 10101937
19:00+7с4652100 0.1 1012612
22:00+4з467283 0.3 1015253
21 мая, пт
пт2101:00+1зюз3586100 0.3 1017103
04:00+1зюз388699 0.1 1018217
07:00+2з577998 0.2 1020562
10:00+5з777088 0.3 10211116
13:00+8зсз46628 0.9 10211327
16:00+10зсз345582 1.3 10201375
19:00+9зсз356436 2.1 1021913
22:00+4ююз348161 0.1 102153